FDB1134 VNKT-OMDB

Flight info

Callsign FDB1134
Flight time 4h 7m
Altitude 32000
Route DARKE1E SMR G590 BPL L639 RASKI L301 RAGMA N571 VUSET A454 PASOV B540 MIVEK P574 IMPED
Aircraft B738/M-SDE2E3FGHIRWXY/LB1

Departure

Time 2026-04-20 12:39
Airport Tribhuvan International Airport (VNKT)

Arrival

Time 2026-04-20 16:47
Airport Dubai International Airport (OMDB)
Time Latitude Longitude Altitude Speed Heading
2026-04-20 12:11 27.69980 85.35856 4398 ft 0 kts 292°
2026-04-20 12:28 27.69980 85.35857 4398 ft 0 kts 292°
2026-04-20 12:28 27.69976 85.35869 4398 ft 2 kts 292°
2026-04-20 12:28 27.69969 85.35888 4398 ft 3 kts 292°
2026-04-20 12:29 27.69961 85.35909 4398 ft 3 kts 292°
2026-04-20 12:29 27.69956 85.35931 4398 ft 3 kts 274°
2026-04-20 12:29 27.69958 85.35954 4398 ft 3 kts 253°
2026-04-20 12:29 27.69967 85.35975 4398 ft 3 kts 235°
2026-04-20 12:30 27.69981 85.35992 4398 ft 3 kts 218°
2026-04-20 12:30 27.69994 85.36000 4398 ft 0 kts 202°
2026-04-20 12:31 27.69987 85.35991 4398 ft 5 kts 244°
2026-04-20 12:32 27.69952 85.35927 4398 ft 13 kts 204°
2026-04-20 12:32 27.69837 85.35871 4398 ft 23 kts 202°
2026-04-20 12:32 27.69672 85.35796 4398 ft 27 kts 202°
2026-04-20 12:32 27.69500 85.35714 4398 ft 27 kts 204°
2026-04-20 12:33 27.69331 85.35626 4398 ft 27 kts 201°
2026-04-20 12:33 27.69216 85.35609 4398 ft 3 kts 226°
2026-04-20 12:33 27.69184 85.35586 4398 ft 8 kts 205°
2026-04-20 12:33 27.69116 85.35561 4398 ft 12 kts 191°
2026-04-20 12:34 27.69067 85.35581 4398 ft 0 kts 123°
2026-04-20 12:34 27.69057 85.35597 4398 ft 5 kts 123°
2026-04-20 12:34 27.69023 85.35639 4398 ft 9 kts 167°
2026-04-20 12:34 27.68958 85.35609 4398 ft 12 kts 202°
2026-04-20 12:35 27.68867 85.35566 4398 ft 16 kts 203°
2026-04-20 12:35 27.68756 85.35512 4398 ft 19 kts 203°
2026-04-20 12:35 27.68627 85.35451 4398 ft 21 kts 203°
2026-04-20 12:35 27.68485 85.35384 4398 ft 23 kts 200°
2026-04-20 12:36 27.68386 85.35346 4398 ft 0 kts 191°
2026-04-20 12:36 27.68378 85.35331 4398 ft 6 kts 273°
2026-04-20 12:36 27.68433 85.35331 4398 ft 14 kts 23°
2026-04-20 12:36 27.68525 85.35407 4398 ft 0 kts 33°
2026-04-20 12:37 27.68554 85.35417 4398 ft 11 kts 20°
2026-04-20 12:37 27.68582 85.35428 4398 ft 0 kts 21°
2026-04-20 12:38 27.68694 85.35478 4398 ft 45 kts 21°
2026-04-20 12:38 27.69167 85.35691 4398 ft 99 kts 21°
2026-04-20 12:38 27.69960 85.36049 4398 ft 145 kts 21°
2026-04-20 12:38 27.71013 85.36526 4472 ft 173 kts 27°
2026-04-20 12:39 27.73200 85.37644 5188 ft 188 kts 358°
2026-04-20 12:39 27.74463 85.37155 5475 ft 201 kts 323°
2026-04-20 12:39 27.75285 85.35905 6002 ft 198 kts 290°
2026-04-20 12:40 27.75363 85.34380 6481 ft 198 kts 257°
2026-04-20 12:40 27.74684 85.32999 6707 ft 206 kts 228°
2026-04-20 12:40 27.73755 85.31830 7238 ft 198 kts 230°
2026-04-20 12:40 27.72735 85.30783 7647 ft 205 kts 209°
2026-04-20 12:41 27.71327 85.30458 8147 ft 210 kts 177°
2026-04-20 12:41 27.69971 85.31023 8578 ft 214 kts 147°
2026-04-20 12:41 27.68890 85.32217 8913 ft 221 kts 128°
2026-04-20 12:41 27.68344 85.33833 9290 ft 225 kts 98°
2026-04-20 12:42 27.68576 85.35571 9623 ft 228 kts 68°
2026-04-20 12:42 27.69477 85.37031 9951 ft 229 kts 43°
2026-04-20 12:42 27.70846 85.37914 10286 ft 228 kts 15°
2026-04-20 12:42 27.72396 85.37950 10737 ft 222 kts 345°
2026-04-20 12:43 27.73736 85.37142 11078 ft 219 kts 315°
2026-04-20 12:43 27.74518 85.35723 11430 ft 216 kts 287°
2026-04-20 12:43 27.74700 85.34053 11813 ft 215 kts 264°
2026-04-20 12:43 27.74239 85.32466 12142 ft 214 kts 241°
2026-04-20 12:44 27.73346 85.31113 12639 ft 215 kts 230°
2026-04-20 12:44 27.72468 85.29744 13072 ft 217 kts 248°
2026-04-20 12:44 27.72237 85.28060 13333 ft 224 kts 271°
2026-04-20 12:44 27.72349 85.26275 13467 ft 236 kts 274°
2026-04-20 12:45 27.72524 85.24388 13616 ft 248 kts 275°
2026-04-20 12:45 27.72739 85.22414 13763 ft 260 kts 277°
2026-04-20 12:45 27.73024 85.20331 13922 ft 273 kts 277°
2026-04-20 12:45 27.73334 85.18176 14208 ft 282 kts 278°
2026-04-20 12:46 27.73656 85.15987 14768 ft 284 kts 278°
2026-04-20 12:46 27.73756 85.14510 14997 ft 288 kts 265°
2026-04-20 12:46 27.72885 85.11641 15411 ft 300 kts 235°
2026-04-20 12:46 27.71952 85.10456 15556 ft 310 kts 221°
2026-04-20 12:47 27.70052 85.09202 15718 ft 325 kts 201°
2026-04-20 12:47 27.67812 85.08560 15972 ft 341 kts 192°
2026-04-20 12:47 27.65410 85.08151 16160 ft 356 kts 190°
2026-04-20 12:47 27.62949 85.07749 16344 ft 369 kts 191°
2026-04-20 12:48 27.60362 85.07290 16527 ft 381 kts 191°
2026-04-20 12:48 27.57695 85.06796 16676 ft 393 kts 191°
2026-04-20 12:48 27.54970 85.06264 16828 ft 403 kts 192°
2026-04-20 12:48 27.52167 85.05705 16974 ft 413 kts 192°
2026-04-20 12:49 27.49305 85.05119 17150 ft 422 kts 192°
2026-04-20 12:49 27.46424 85.04521 17398 ft 428 kts 192°
2026-04-20 12:49 27.43486 85.03907 17787 ft 430 kts 192°
2026-04-20 12:49 27.40535 85.03287 18147 ft 432 kts 193°
2026-04-20 12:50 27.37568 85.02662 18498 ft 435 kts 193°
2026-04-20 12:50 27.34583 85.02033 18829 ft 437 kts 193°
2026-04-20 12:50 27.31582 85.01401 19166 ft 439 kts 193°
2026-04-20 12:50 27.28570 85.00766 19494 ft 442 kts 193°
2026-04-20 12:51 27.25544 85.00128 19800 ft 444 kts 193°
2026-04-20 12:51 27.22496 84.99485 20118 ft 446 kts 193°
2026-04-20 12:51 27.19484 84.98645 20404 ft 445 kts 202°
2026-04-20 12:51 27.16699 84.97159 20714 ft 441 kts 214°
2026-04-20 12:52 27.14240 84.95111 21006 ft 439 kts 223°
2026-04-20 12:52 27.11999 84.92834 21280 ft 440 kts 226°
2026-04-20 12:52 27.09824 84.90418 21577 ft 441 kts 229°
2026-04-20 12:52 27.07705 84.87914 21851 ft 442 kts 229°
2026-04-20 12:53 27.05590 84.85407 22138 ft 443 kts 229°
2026-04-20 12:53 27.03462 84.82892 22395 ft 445 kts 229°
2026-04-20 12:53 27.01325 84.80368 22620 ft 447 kts 229°
2026-04-20 12:53 26.99188 84.77824 22879 ft 447 kts 230°
2026-04-20 12:54 26.97094 84.75230 23126 ft 448 kts 231°
2026-04-20 12:54 26.95037 84.72657 23356 ft 449 kts 231°
2026-04-20 12:54 26.92946 84.70047 23562 ft 451 kts 231°
2026-04-20 12:54 26.90841 84.67423 23794 ft 452 kts 231°
2026-04-20 12:55 26.88732 84.64800 24013 ft 453 kts 231°
2026-04-20 12:55 26.86625 84.62174 24239 ft 453 kts 231°
2026-04-20 12:55 26.84519 84.59539 24483 ft 453 kts 231°
2026-04-20 12:55 26.82412 84.56913 24715 ft 454 kts 231°
2026-04-20 12:56 26.80299 84.54286 24935 ft 454 kts 231°
2026-04-20 12:56 26.78185 84.51664 25145 ft 454 kts 231°
2026-04-20 12:56 26.76068 84.49042 25393 ft 454 kts 231°
2026-04-20 12:56 26.73957 84.46431 25740 ft 451 kts 231°
2026-04-20 12:57 26.71888 84.43872 26111 ft 447 kts 231°
2026-04-20 12:57 26.69808 84.41301 26479 ft 444 kts 231°
2026-04-20 12:57 26.67736 84.38742 26822 ft 441 kts 231°
2026-04-20 12:57 26.65678 84.36198 27197 ft 438 kts 232°
2026-04-20 12:58 26.63652 84.33678 27576 ft 435 kts 232°
2026-04-20 12:58 26.61636 84.31172 27974 ft 431 kts 232°
2026-04-20 12:58 26.59634 84.28683 28340 ft 428 kts 232°
2026-04-20 12:58 26.57650 84.26218 28729 ft 425 kts 232°
2026-04-20 12:59 26.55708 84.23807 29147 ft 421 kts 232°
2026-04-20 12:59 26.53752 84.21379 29516 ft 418 kts 232°
2026-04-20 12:59 26.51815 84.18975 29872 ft 415 kts 232°
2026-04-20 12:59 26.49890 84.16589 30229 ft 413 kts 232°
2026-04-20 13:00 26.47970 84.14208 30526 ft 412 kts 232°
2026-04-20 13:00 26.46059 84.11820 30781 ft 411 kts 232°
2026-04-20 13:00 26.44158 84.09449 31131 ft 409 kts 232°
2026-04-20 13:00 26.42264 84.07096 31423 ft 407 kts 232°
2026-04-20 13:01 26.40366 84.04742 31668 ft 407 kts 232°
2026-04-20 13:01 26.36552 84.00024 31691 ft 409 kts 232°
2026-04-20 13:02 26.32759 83.95336 31690 ft 404 kts 231°
2026-04-20 13:02 26.29023 83.90730 31686 ft 402 kts 230°
2026-04-20 13:03 26.25262 83.86087 31681 ft 403 kts 231°
2026-04-20 13:03 26.21511 83.81429 31679 ft 403 kts 231°
2026-04-20 13:04 26.17785 83.76813 31675 ft 403 kts 231°
2026-04-20 13:04 26.14019 83.72159 31673 ft 403 kts 231°
2026-04-20 13:05 26.10260 83.67520 31669 ft 403 kts 231°
2026-04-20 13:05 26.06504 83.62890 31667 ft 403 kts 231°
2026-04-20 13:06 26.02760 83.58275 31664 ft 403 kts 231°
2026-04-20 13:06 25.99042 83.53610 31661 ft 403 kts 231°
2026-04-20 13:07 25.95307 83.48918 31659 ft 405 kts 231°
2026-04-20 13:07 25.91584 83.44258 31656 ft 406 kts 231°
2026-04-20 13:08 25.87831 83.39568 31655 ft 407 kts 231°
2026-04-20 13:08 25.84062 83.34865 31652 ft 407 kts 231°
2026-04-20 13:09 25.80284 83.30154 31650 ft 408 kts 231°
2026-04-20 13:09 25.76541 83.25435 31647 ft 408 kts 231°
2026-04-20 13:10 25.72791 83.20676 31646 ft 409 kts 231°
2026-04-20 13:10 25.69064 83.15951 31645 ft 410 kts 231°
2026-04-20 13:11 25.65308 83.11176 31643 ft 411 kts 231°
2026-04-20 13:11 25.61549 83.06397 31642 ft 411 kts 231°
2026-04-20 13:12 25.57778 83.01623 31640 ft 411 kts 231°
2026-04-20 13:12 25.54021 82.96876 31640 ft 412 kts 231°
2026-04-20 13:13 25.50234 82.92098 31639 ft 412 kts 231°
2026-04-20 13:13 25.46718 82.87094 31640 ft 411 kts 242°
2026-04-20 13:14 25.44651 82.81212 31639 ft 412 kts 253°
2026-04-20 13:14 25.43197 82.75066 31640 ft 413 kts 255°
2026-04-20 13:15 25.41860 82.68929 31640 ft 413 kts 255°
2026-04-20 13:15 25.40536 82.62747 31640 ft 413 kts 255°
2026-04-20 13:16 25.39238 82.56552 31641 ft 414 kts 256°
2026-04-20 13:16 25.37942 82.50360 31641 ft 414 kts 255°
2026-04-20 13:17 25.36633 82.44167 31643 ft 414 kts 255°
2026-04-20 13:17 25.35315 82.37957 31644 ft 415 kts 255°
2026-04-20 13:18 25.34001 82.31785 31645 ft 414 kts 255°
2026-04-20 13:18 25.32680 82.25578 31646 ft 414 kts 255°
2026-04-20 13:19 25.31298 82.19392 31647 ft 414 kts 255°
2026-04-20 13:19 25.29898 82.13201 31649 ft 414 kts 255°
2026-04-20 13:20 25.28505 82.07051 31649 ft 415 kts 255°
2026-04-20 13:20 25.27098 82.00844 31652 ft 415 kts 255°
2026-04-20 13:21 25.25701 81.94690 31653 ft 414 kts 254°
2026-04-20 13:21 25.24295 81.88508 31655 ft 414 kts 254°
2026-04-20 13:22 25.22915 81.82372 31657 ft 414 kts 254°
2026-04-20 13:22 25.21525 81.76188 31658 ft 414 kts 254°
2026-04-20 13:23 25.20126 81.70008 31660 ft 414 kts 254°
2026-04-20 13:23 25.18716 81.63834 31661 ft 414 kts 254°
2026-04-20 13:24 25.17302 81.57674 31663 ft 414 kts 254°
2026-04-20 13:24 25.15882 81.51505 31665 ft 413 kts 254°
2026-04-20 13:25 25.14471 81.45381 31667 ft 414 kts 253°
2026-04-20 13:25 25.13093 81.39209 31668 ft 414 kts 254°
2026-04-20 13:26 25.11725 81.33036 31670 ft 414 kts 254°
2026-04-20 13:26 25.10353 81.26858 31672 ft 414 kts 254°
2026-04-20 13:27 25.09010 81.20731 31675 ft 414 kts 254°
2026-04-20 13:27 25.07642 81.14546 31676 ft 414 kts 254°
2026-04-20 13:28 25.06267 81.08387 31675 ft 413 kts 254°
2026-04-20 13:28 25.04887 81.02228 31679 ft 413 kts 253°
2026-04-20 13:29 25.03505 80.96067 31684 ft 413 kts 254°
2026-04-20 13:29 25.02133 80.89957 31685 ft 413 kts 254°
2026-04-20 13:30 25.00786 80.83787 31690 ft 414 kts 254°
2026-04-20 13:30 24.99433 80.77612 31695 ft 414 kts 254°
2026-04-20 13:31 24.98076 80.71440 31696 ft 414 kts 254°
2026-04-20 13:31 24.96724 80.65302 31697 ft 414 kts 254°
2026-04-20 13:32 24.95362 80.59132 31696 ft 414 kts 253°
2026-04-20 13:32 24.94000 80.52954 31697 ft 414 kts 254°
2026-04-20 13:33 24.92650 80.46777 31697 ft 414 kts 254°
2026-04-20 13:33 24.91301 80.40643 31695 ft 414 kts 253°
2026-04-20 13:34 24.89938 80.34475 31698 ft 414 kts 253°
2026-04-20 13:34 24.88572 80.28316 31697 ft 414 kts 253°
2026-04-20 13:35 24.87442 80.23189 31698 ft 413 kts 253°
2026-04-20 13:35 24.86077 80.17032 31697 ft 413 kts 253°
2026-04-20 13:36 24.84701 80.10871 31699 ft 413 kts 253°
2026-04-20 13:36 24.83323 80.04736 31698 ft 413 kts 253°
2026-04-20 13:37 24.81949 79.98627 31699 ft 414 kts 253°
2026-04-20 13:37 24.80314 79.92543 31699 ft 414 kts 246°
2026-04-20 13:38 24.77662 79.86937 31698 ft 413 kts 238°
2026-04-20 13:38 24.74638 79.81549 31699 ft 413 kts 238°
2026-04-20 13:39 24.71593 79.76201 31701 ft 413 kts 238°
2026-04-20 13:39 24.68551 79.70885 31702 ft 413 kts 237°
2026-04-20 13:40 24.65488 79.65553 31704 ft 413 kts 237°
2026-04-20 13:40 24.62414 79.60214 31708 ft 413 kts 237°
2026-04-20 13:41 24.59352 79.54870 31712 ft 413 kts 237°
2026-04-20 13:41 24.56291 79.49542 31716 ft 413 kts 237°
2026-04-20 13:42 24.53243 79.44250 31721 ft 412 kts 237°
2026-04-20 13:42 24.48629 79.36259 31729 ft 413 kts 237°
2026-04-20 13:43 24.45541 79.30919 31734 ft 413 kts 237°
2026-04-20 13:43 24.42453 79.25589 31739 ft 413 kts 237°
2026-04-20 13:44 24.39376 79.20281 31744 ft 413 kts 237°
2026-04-20 13:44 24.36286 79.14958 31750 ft 413 kts 237°
2026-04-20 13:45 24.33213 79.09671 31755 ft 413 kts 237°
2026-04-20 13:45 24.30119 79.04353 31761 ft 413 kts 237°
2026-04-20 13:46 24.27013 78.99020 31766 ft 414 kts 237°
2026-04-20 13:46 24.23909 78.93697 31770 ft 414 kts 237°
2026-04-20 13:47 24.20823 78.88409 31774 ft 414 kts 237°
2026-04-20 13:47 24.17723 78.83094 31779 ft 414 kts 237°
2026-04-20 13:48 24.14620 78.77772 31784 ft 414 kts 237°
2026-04-20 13:48 24.11509 78.72457 31787 ft 414 kts 237°
2026-04-20 13:49 24.08395 78.67151 31792 ft 414 kts 237°
2026-04-20 13:49 24.05295 78.61876 31794 ft 415 kts 237°
2026-04-20 13:50 24.02170 78.56564 31798 ft 415 kts 237°
2026-04-20 13:50 23.99025 78.51250 31803 ft 416 kts 237°
2026-04-20 13:51 23.95876 78.45967 31804 ft 412 kts 236°
2026-04-20 13:51 23.92760 78.40751 31809 ft 412 kts 237°
2026-04-20 13:52 23.89620 78.35498 31812 ft 412 kts 237°
2026-04-20 13:52 23.86479 78.30249 31815 ft 412 kts 237°
2026-04-20 13:53 23.83363 78.25047 31817 ft 412 kts 237°
2026-04-20 13:53 23.80232 78.19800 31820 ft 412 kts 237°
2026-04-20 13:54 23.77092 78.14538 31824 ft 412 kts 237°
2026-04-20 13:54 23.73979 78.09336 31827 ft 412 kts 236°
2026-04-20 13:55 23.70903 78.04204 31829 ft 412 kts 237°
2026-04-20 13:55 23.67762 77.98971 31832 ft 412 kts 236°
2026-04-20 13:56 23.64617 77.93738 31834 ft 412 kts 236°
2026-04-20 13:56 23.61460 77.88492 31836 ft 413 kts 236°
2026-04-20 13:57 23.58305 77.83253 31838 ft 413 kts 236°
2026-04-20 13:57 23.55168 77.78051 31839 ft 413 kts 236°
2026-04-20 13:58 23.52009 77.72817 31841 ft 413 kts 236°
2026-04-20 13:58 23.48838 77.67568 31842 ft 414 kts 236°
2026-04-20 13:59 23.45685 77.62350 31844 ft 414 kts 237°
2026-04-20 13:59 23.42518 77.57101 31844 ft 415 kts 236°
2026-04-20 14:00 23.39331 77.51843 31845 ft 415 kts 236°
2026-04-20 14:00 23.36136 77.46581 31845 ft 416 kts 236°
2026-04-20 14:01 23.32937 77.41321 31846 ft 416 kts 236°
2026-04-20 14:01 23.29886 77.35961 31846 ft 418 kts 244°
2026-04-20 14:02 23.28350 77.29891 31847 ft 423 kts 259°
2026-04-20 14:02 23.27703 77.23517 31846 ft 424 kts 262°
2026-04-20 14:03 23.27189 77.17119 31846 ft 425 kts 262°
2026-04-20 14:03 23.26696 77.10698 31847 ft 426 kts 262°
2026-04-20 14:04 23.26214 77.04273 31848 ft 426 kts 262°
2026-04-20 14:04 23.25736 76.97844 31849 ft 427 kts 262°
2026-04-20 14:05 23.25277 76.91400 31849 ft 427 kts 262°
2026-04-20 14:05 23.24817 76.84977 31852 ft 428 kts 262°
2026-04-20 14:06 23.24348 76.78514 31854 ft 429 kts 263°
2026-04-20 14:06 23.23874 76.72036 31858 ft 430 kts 263°
2026-04-20 14:07 23.23396 76.65545 31860 ft 430 kts 263°
2026-04-20 14:07 23.22917 76.59086 31864 ft 430 kts 263°
2026-04-20 14:08 23.22431 76.52588 31867 ft 431 kts 263°
2026-04-20 14:08 23.21945 76.46112 31871 ft 432 kts 263°
2026-04-20 14:09 23.21453 76.39588 31875 ft 431 kts 263°
2026-04-20 14:09 23.20968 76.33110 31880 ft 432 kts 263°
2026-04-20 14:10 23.20479 76.26600 31884 ft 432 kts 263°
2026-04-20 14:10 23.19977 76.20068 31887 ft 433 kts 263°
2026-04-20 14:11 23.19472 76.13573 31889 ft 433 kts 263°
2026-04-20 14:11 23.18960 76.07042 31891 ft 433 kts 263°
2026-04-20 14:12 23.18451 76.00550 31894 ft 433 kts 263°
2026-04-20 14:12 23.18218 75.93979 31897 ft 436 kts 267°
2026-04-20 14:13 23.18183 75.87390 31896 ft 435 kts 267°
2026-04-20 14:13 23.18126 75.80795 31897 ft 435 kts 266°
2026-04-20 14:14 23.18054 75.74244 31895 ft 435 kts 266°
2026-04-20 14:14 23.17970 75.67666 31894 ft 435 kts 266°
2026-04-20 14:15 23.17886 75.61070 31893 ft 435 kts 266°
2026-04-20 14:15 23.17811 75.54494 31895 ft 436 kts 266°
2026-04-20 14:16 23.17727 75.47934 31893 ft 436 kts 266°
2026-04-20 14:16 23.17636 75.41340 31891 ft 436 kts 266°
2026-04-20 14:17 23.17540 75.34791 31888 ft 436 kts 266°
2026-04-20 14:17 23.17440 75.28212 31887 ft 436 kts 266°
2026-04-20 14:18 23.17337 75.21621 31884 ft 436 kts 266°
2026-04-20 14:18 23.17231 75.14998 31882 ft 437 kts 266°
2026-04-20 14:19 23.17121 75.08390 31881 ft 437 kts 266°
2026-04-20 14:19 23.17008 75.01770 31878 ft 438 kts 266°
2026-04-20 14:20 23.16894 74.95191 31874 ft 438 kts 266°
2026-04-20 14:20 23.16775 74.88548 31871 ft 439 kts 266°
2026-04-20 14:21 23.16674 74.83020 31868 ft 439 kts 267°
2026-04-20 14:21 23.16551 74.76373 31865 ft 440 kts 267°
2026-04-20 14:22 23.16425 74.69768 31862 ft 440 kts 267°
2026-04-20 14:22 23.16309 74.63107 31858 ft 440 kts 267°
2026-04-20 14:23 23.16178 74.56458 31855 ft 441 kts 267°
2026-04-20 14:23 23.16039 74.49797 31851 ft 441 kts 267°
2026-04-20 14:24 23.15896 74.43115 31848 ft 442 kts 267°
2026-04-20 14:24 23.15751 74.36432 31844 ft 441 kts 267°
2026-04-20 14:25 23.15574 74.29766 31840 ft 442 kts 265°
2026-04-20 14:25 23.15226 74.23131 31837 ft 442 kts 265°
2026-04-20 14:26 23.14881 74.16455 31832 ft 443 kts 265°
2026-04-20 14:26 23.14541 74.09760 31830 ft 443 kts 265°
2026-04-20 14:27 23.14205 74.03108 31826 ft 443 kts 265°
2026-04-20 14:27 23.13869 73.96399 31822 ft 444 kts 266°
2026-04-20 14:28 23.13554 73.89744 31819 ft 443 kts 266°
2026-04-20 14:28 23.13228 73.83047 31814 ft 443 kts 266°
2026-04-20 14:29 23.12897 73.76343 31809 ft 443 kts 265°
2026-04-20 14:29 23.12562 73.69678 31806 ft 444 kts 265°
2026-04-20 14:30 23.12222 73.62965 31803 ft 444 kts 265°
2026-04-20 14:30 23.11879 73.56261 31802 ft 444 kts 265°
2026-04-20 14:31 23.11534 73.49589 31797 ft 445 kts 266°
2026-04-20 14:31 23.11183 73.42856 31796 ft 445 kts 266°
2026-04-20 14:32 23.10830 73.36140 31789 ft 445 kts 265°
2026-04-20 14:32 23.10476 73.29448 31783 ft 446 kts 266°
2026-04-20 14:33 23.10116 73.22701 31779 ft 446 kts 266°
2026-04-20 14:33 23.09754 73.15971 31769 ft 446 kts 266°
2026-04-20 14:34 23.09389 73.09241 31764 ft 447 kts 266°
2026-04-20 14:34 23.09020 73.02495 31763 ft 448 kts 266°
2026-04-20 14:35 23.08655 72.95736 31761 ft 448 kts 266°
2026-04-20 14:35 23.08290 72.89010 31760 ft 449 kts 266°
2026-04-20 14:36 23.07909 72.82231 31757 ft 449 kts 266°
2026-04-20 14:36 23.07523 72.75478 31758 ft 450 kts 266°
2026-04-20 14:37 23.07133 72.68691 31759 ft 450 kts 266°
2026-04-20 14:37 23.06707 72.61894 31758 ft 451 kts 264°
2026-04-20 14:38 23.05837 72.55128 31758 ft 452 kts 261°
2026-04-20 14:38 23.04838 72.48416 31759 ft 452 kts 261°
2026-04-20 14:39 23.03859 72.41698 31758 ft 453 kts 261°
2026-04-20 14:39 23.02882 72.34924 31758 ft 453 kts 261°
2026-04-20 14:40 23.01912 72.28159 31777 ft 453 kts 262°
2026-04-20 14:40 23.00954 72.21365 31787 ft 454 kts 262°
2026-04-20 14:41 23.00005 72.14617 31787 ft 454 kts 262°
2026-04-20 14:41 22.99043 72.07828 31788 ft 454 kts 262°
2026-04-20 14:42 22.98075 72.01039 31790 ft 454 kts 262°
2026-04-20 14:42 22.97111 71.94295 31789 ft 454 kts 262°
2026-04-20 14:43 22.96137 71.87507 31790 ft 454 kts 261°
2026-04-20 14:43 22.95162 71.80732 31790 ft 454 kts 261°
2026-04-20 14:44 22.94189 71.73995 31790 ft 454 kts 261°
2026-04-20 14:44 22.93207 71.67220 31791 ft 454 kts 261°
2026-04-20 14:45 22.92223 71.60447 31793 ft 454 kts 261°
2026-04-20 14:45 22.91235 71.53675 31792 ft 454 kts 261°
2026-04-20 14:46 22.90250 71.46940 31792 ft 454 kts 261°
2026-04-20 14:46 22.89258 71.40174 31792 ft 454 kts 261°
2026-04-20 14:47 22.88261 71.33402 31792 ft 454 kts 261°
2026-04-20 14:48 22.86767 71.23281 31794 ft 454 kts 261°
2026-04-20 14:48 22.85771 71.16525 31795 ft 454 kts 261°
2026-04-20 14:49 22.84772 71.09750 31794 ft 454 kts 261°
2026-04-20 14:49 22.83764 71.02987 31796 ft 454 kts 261°
2026-04-20 14:50 22.82754 70.96269 31796 ft 454 kts 261°
2026-04-20 14:50 22.81734 70.89500 31798 ft 454 kts 261°
2026-04-20 14:51 22.81008 70.82697 31797 ft 454 kts 269°
2026-04-20 14:51 22.81241 70.75897 31801 ft 454 kts 274°
2026-04-20 14:52 22.81687 70.69070 31799 ft 454 kts 274°
2026-04-20 14:52 22.82123 70.62228 31801 ft 454 kts 274°
2026-04-20 14:53 22.82552 70.55389 31802 ft 454 kts 274°
2026-04-20 14:53 22.82973 70.48589 31802 ft 454 kts 274°
2026-04-20 14:54 22.83409 70.41739 31803 ft 455 kts 274°
2026-04-20 14:54 22.83839 70.34939 31803 ft 454 kts 274°
2026-04-20 14:55 22.84263 70.28102 31803 ft 454 kts 274°
2026-04-20 14:55 22.84679 70.21288 31805 ft 454 kts 274°
2026-04-20 14:56 22.85094 70.14440 31805 ft 454 kts 274°
2026-04-20 14:56 22.85506 70.07590 31806 ft 454 kts 274°
2026-04-20 14:57 22.85923 70.00798 31808 ft 454 kts 274°
2026-04-20 14:57 22.86331 69.93931 31807 ft 459 kts 275°
2026-04-20 14:58 22.86736 69.86991 31807 ft 462 kts 275°
2026-04-20 14:58 22.87136 69.80046 31808 ft 460 kts 275°
2026-04-20 14:59 22.87534 69.73109 31808 ft 461 kts 275°
2026-04-20 14:59 22.87956 69.66213 31809 ft 460 kts 275°
2026-04-20 15:00 22.88402 69.59283 31812 ft 460 kts 275°
2026-04-20 15:00 22.88843 69.52364 31812 ft 460 kts 275°
2026-04-20 15:01 22.89278 69.45469 31813 ft 460 kts 275°
2026-04-20 15:01 22.89712 69.38523 31813 ft 460 kts 275°
2026-04-20 15:02 22.90148 69.31588 31811 ft 460 kts 276°
2026-04-20 15:02 22.90593 69.24705 31813 ft 460 kts 276°
2026-04-20 15:03 22.91032 69.17761 31812 ft 461 kts 276°
2026-04-20 15:03 22.91464 69.10827 31812 ft 460 kts 276°
2026-04-20 15:04 22.91892 69.03889 31814 ft 461 kts 276°
2026-04-20 15:04 22.92315 68.96941 31814 ft 461 kts 276°
2026-04-20 15:05 22.92734 68.90038 31812 ft 461 kts 276°
2026-04-20 15:05 22.93151 68.83087 31814 ft 461 kts 276°
2026-04-20 15:06 22.93566 68.76139 31814 ft 461 kts 276°
2026-04-20 15:06 22.93985 68.69229 31813 ft 461 kts 276°
2026-04-20 15:07 22.94331 68.63454 31813 ft 461 kts 276°
2026-04-20 15:07 22.94735 68.56491 31813 ft 461 kts 276°
2026-04-20 15:08 22.95133 68.49546 31815 ft 461 kts 276°
2026-04-20 15:08 22.95525 68.42632 31814 ft 461 kts 276°
2026-04-20 15:09 22.95879 68.35678 31813 ft 462 kts 274°
2026-04-20 15:09 22.95875 68.28671 31814 ft 463 kts 272°
2026-04-20 15:10 22.95836 68.21681 31817 ft 465 kts 273°
2026-04-20 15:10 22.95838 68.14639 31826 ft 472 kts 273°
2026-04-20 15:11 22.95833 68.07499 31824 ft 472 kts 273°
2026-04-20 15:11 22.95823 68.00376 31827 ft 471 kts 273°
2026-04-20 15:12 22.95811 67.93275 31827 ft 476 kts 273°
2026-04-20 15:12 22.95801 67.86084 31827 ft 476 kts 273°
2026-04-20 15:13 22.95817 67.78901 31829 ft 475 kts 273°
2026-04-20 15:13 22.95826 67.71715 31828 ft 475 kts 273°
2026-04-20 15:14 22.95832 67.64579 31829 ft 475 kts 273°
2026-04-20 15:14 22.95835 67.57406 31829 ft 475 kts 273°
2026-04-20 15:15 22.95834 67.50227 31830 ft 476 kts 273°
2026-04-20 15:15 22.95851 67.43038 31831 ft 476 kts 273°
2026-04-20 15:16 22.95857 67.35849 31831 ft 476 kts 273°
2026-04-20 15:16 22.95864 67.28703 31831 ft 476 kts 273°
2026-04-20 15:17 22.95864 67.21506 31832 ft 476 kts 273°
2026-04-20 15:17 22.95853 67.14351 31832 ft 476 kts 273°
2026-04-20 15:18 22.95833 67.07152 31836 ft 476 kts 273°
2026-04-20 15:18 22.95811 66.99951 31837 ft 477 kts 272°
2026-04-20 15:19 22.95776 66.92792 31837 ft 477 kts 273°
2026-04-20 15:19 22.95834 66.85592 31837 ft 477 kts 274°
2026-04-20 15:20 22.95882 66.78382 31838 ft 477 kts 273°
2026-04-20 15:20 22.95918 66.71181 31838 ft 477 kts 273°
2026-04-20 15:21 22.95949 66.64014 31844 ft 477 kts 273°
2026-04-20 15:21 22.95979 66.56804 31840 ft 478 kts 273°
2026-04-20 15:22 22.96022 66.49585 31837 ft 477 kts 274°
2026-04-20 15:22 22.96055 66.42379 31839 ft 478 kts 273°
2026-04-20 15:23 22.96082 66.35171 31840 ft 478 kts 273°
2026-04-20 15:23 22.96103 66.27985 31839 ft 478 kts 273°
2026-04-20 15:24 22.96120 66.20767 31841 ft 478 kts 273°
2026-04-20 15:24 22.96134 66.13544 31839 ft 478 kts 273°
2026-04-20 15:25 22.96144 66.06318 31842 ft 479 kts 273°
2026-04-20 15:25 22.96149 65.99096 31846 ft 479 kts 273°
2026-04-20 15:26 22.96153 65.91836 31846 ft 480 kts 272°
2026-04-20 15:26 22.96152 65.84642 31847 ft 479 kts 272°
2026-04-20 15:27 22.96148 65.77402 31845 ft 479 kts 272°
2026-04-20 15:27 22.96140 65.70155 31847 ft 479 kts 272°
2026-04-20 15:28 22.96130 65.62965 31846 ft 479 kts 272°
2026-04-20 15:28 22.96116 65.55728 31846 ft 479 kts 272°
2026-04-20 15:29 22.96099 65.48485 31846 ft 479 kts 272°
2026-04-20 15:29 22.96079 65.41254 31846 ft 479 kts 272°
2026-04-20 15:30 22.96055 65.34056 31847 ft 479 kts 272°
2026-04-20 15:30 22.96029 65.26816 31847 ft 479 kts 272°
2026-04-20 15:31 22.95999 65.19578 31846 ft 479 kts 272°
2026-04-20 15:31 22.95979 65.12339 31845 ft 479 kts 272°
2026-04-20 15:32 22.95943 65.05154 31846 ft 479 kts 272°
2026-04-20 15:32 22.95899 64.97912 31847 ft 479 kts 272°
2026-04-20 15:33 22.95850 64.90666 31847 ft 479 kts 272°
2026-04-20 15:33 22.95834 64.83429 31845 ft 478 kts 274°
2026-04-20 15:34 22.96412 64.76262 31845 ft 476 kts 279°
2026-04-20 15:34 22.97223 64.69173 31847 ft 476 kts 279°
2026-04-20 15:35 22.98007 64.62030 31846 ft 476 kts 279°
2026-04-20 15:35 22.98769 64.54883 31847 ft 476 kts 279°
2026-04-20 15:36 22.99514 64.47775 31847 ft 476 kts 279°
2026-04-20 15:36 23.00274 64.40617 31846 ft 476 kts 279°
2026-04-20 15:37 23.01026 64.33462 31846 ft 476 kts 279°
2026-04-20 15:37 23.01768 64.26314 31851 ft 476 kts 279°
2026-04-20 15:38 23.02509 64.19198 31846 ft 476 kts 279°
2026-04-20 15:38 23.03248 64.12047 31846 ft 476 kts 279°
2026-04-20 15:39 23.03975 64.04882 31849 ft 476 kts 279°
2026-04-20 15:39 23.04696 63.97730 31847 ft 476 kts 278°
2026-04-20 15:40 23.05404 63.90661 31847 ft 472 kts 278°
2026-04-20 15:40 23.06127 63.83573 31846 ft 473 kts 278°
2026-04-20 15:41 23.06868 63.76459 31846 ft 473 kts 278°
2026-04-20 15:41 23.07602 63.69354 31846 ft 473 kts 278°
2026-04-20 15:42 23.08332 63.62251 31849 ft 473 kts 278°
2026-04-20 15:42 23.09059 63.55131 31847 ft 473 kts 278°
2026-04-20 15:43 23.09782 63.48077 31846 ft 473 kts 278°
2026-04-20 15:43 23.10524 63.40965 31846 ft 473 kts 278°
2026-04-20 15:44 23.11256 63.33857 31847 ft 473 kts 278°
2026-04-20 15:44 23.11982 63.26745 31847 ft 473 kts 278°
2026-04-20 15:45 23.12703 63.19633 31847 ft 473 kts 278°
2026-04-20 15:45 23.13415 63.12567 31846 ft 473 kts 278°
2026-04-20 15:46 23.14129 63.05445 31848 ft 474 kts 278°
2026-04-20 15:46 23.14839 62.98330 31846 ft 474 kts 278°
2026-04-20 15:47 23.15547 62.91201 31846 ft 474 kts 278°
2026-04-20 15:47 23.16251 62.84071 31846 ft 474 kts 278°
2026-04-20 15:48 23.16951 62.76943 31846 ft 474 kts 278°
2026-04-20 15:48 23.17649 62.69819 31833 ft 474 kts 278°
2026-04-20 15:49 23.18339 62.62730 31823 ft 474 kts 278°
2026-04-20 15:49 23.19031 62.55588 31820 ft 475 kts 278°
2026-04-20 15:50 23.19721 62.48442 31820 ft 474 kts 278°
2026-04-20 15:50 23.20406 62.41303 31820 ft 475 kts 278°
2026-04-20 15:51 23.21085 62.34197 31818 ft 475 kts 278°
2026-04-20 15:51 23.21651 62.28252 31817 ft 475 kts 277°
2026-04-20 15:52 23.22328 62.21098 31817 ft 475 kts 277°
2026-04-20 15:52 23.23001 62.13960 31817 ft 475 kts 277°
2026-04-20 15:53 23.24000 62.03270 31817 ft 475 kts 277°
2026-04-20 15:53 23.24667 61.96119 31814 ft 474 kts 277°
2026-04-20 15:54 23.25327 61.88998 31813 ft 472 kts 277°
2026-04-20 15:54 23.25983 61.81882 31812 ft 473 kts 277°
2026-04-20 15:55 23.26636 61.74763 31812 ft 472 kts 277°
2026-04-20 15:55 23.27281 61.67690 31812 ft 472 kts 277°
2026-04-20 15:56 23.27927 61.60575 31810 ft 472 kts 277°
2026-04-20 15:56 23.28570 61.53465 31809 ft 472 kts 277°
2026-04-20 15:57 23.29222 61.46361 31808 ft 472 kts 277°
2026-04-20 15:57 23.29855 61.39306 31807 ft 471 kts 277°
2026-04-20 15:58 23.30481 61.32198 31807 ft 471 kts 277°
2026-04-20 15:58 23.31104 61.25103 31806 ft 470 kts 277°
2026-04-20 15:59 23.31727 61.18011 31805 ft 470 kts 277°
2026-04-20 15:59 23.32571 61.11005 31806 ft 469 kts 279°
2026-04-20 16:00 23.33481 61.03964 31802 ft 468 kts 279°
2026-04-20 16:00 23.34376 60.96987 31803 ft 468 kts 279°
2026-04-20 16:01 23.35274 60.89931 31801 ft 467 kts 279°
2026-04-20 16:01 23.36140 60.82973 31807 ft 466 kts 278°
2026-04-20 16:02 23.37004 60.75964 31816 ft 466 kts 278°
2026-04-20 16:02 23.37864 60.68996 31815 ft 465 kts 279°
2026-04-20 16:03 23.39380 60.62182 31808 ft 464 kts 289°
2026-04-20 16:03 23.41684 60.55627 31804 ft 462 kts 292°
2026-04-20 16:04 23.44048 60.49154 31804 ft 462 kts 292°
2026-04-20 16:04 23.46423 60.42636 31804 ft 462 kts 291°
2026-04-20 16:05 23.48792 60.36120 31803 ft 462 kts 291°
2026-04-20 16:05 23.51156 60.29610 31802 ft 461 kts 291°
2026-04-20 16:06 23.53534 60.23111 31802 ft 461 kts 291°
2026-04-20 16:06 23.55903 60.16609 31801 ft 461 kts 291°
2026-04-20 16:07 23.58262 60.10114 31801 ft 460 kts 291°
2026-04-20 16:07 23.60620 60.03606 31797 ft 461 kts 291°
2026-04-20 16:08 23.62955 59.97150 31796 ft 460 kts 291°
2026-04-20 16:08 23.65300 59.90653 31795 ft 460 kts 291°
2026-04-20 16:09 23.67642 59.84155 31795 ft 460 kts 291°
2026-04-20 16:09 23.69979 59.77661 31794 ft 460 kts 291°
2026-04-20 16:10 23.72316 59.71152 31797 ft 460 kts 291°
2026-04-20 16:10 23.74640 59.64675 31797 ft 460 kts 291°
2026-04-20 16:11 23.76970 59.58169 31796 ft 460 kts 291°
2026-04-20 16:11 23.79297 59.51661 31796 ft 460 kts 291°
2026-04-20 16:12 23.81630 59.45142 31795 ft 460 kts 291°
2026-04-20 16:12 23.83959 59.38637 31793 ft 460 kts 291°
2026-04-20 16:13 23.86279 59.32115 31794 ft 460 kts 291°
2026-04-20 16:13 23.88577 59.25633 31793 ft 459 kts 291°
2026-04-20 16:14 23.90882 59.19122 31793 ft 459 kts 291°
2026-04-20 16:14 23.93177 59.12607 31792 ft 459 kts 290°
2026-04-20 16:15 23.95299 59.06017 31792 ft 459 kts 289°
2026-04-20 16:15 23.97389 58.99458 31791 ft 459 kts 289°
2026-04-20 16:16 23.99489 58.92878 31792 ft 458 kts 289°
2026-04-20 16:16 24.01615 58.86296 31792 ft 458 kts 289°
2026-04-20 16:17 24.03723 58.79723 31790 ft 457 kts 288°
2026-04-20 16:17 24.05806 58.73188 31790 ft 457 kts 288°
2026-04-20 16:18 24.07898 58.66608 31790 ft 457 kts 288°
2026-04-20 16:18 24.09986 58.60038 31790 ft 457 kts 288°
2026-04-20 16:19 24.12067 58.53469 31790 ft 456 kts 288°
2026-04-20 16:19 24.14138 58.46916 31790 ft 456 kts 288°
2026-04-20 16:20 24.16212 58.40329 31790 ft 456 kts 288°
2026-04-20 16:20 24.18269 58.33785 31789 ft 456 kts 288°
2026-04-20 16:21 24.20335 58.27200 31790 ft 456 kts 288°
2026-04-20 16:21 24.22400 58.20634 31791 ft 456 kts 288°
2026-04-20 16:22 24.24459 58.14108 31790 ft 456 kts 288°
2026-04-20 16:22 24.26525 58.07533 31790 ft 456 kts 288°
2026-04-20 16:23 24.28589 58.00943 31790 ft 456 kts 288°
2026-04-20 16:23 24.30630 57.94407 31790 ft 456 kts 288°
2026-04-20 16:24 24.32686 57.87814 31791 ft 456 kts 288°
2026-04-20 16:24 24.34745 57.81229 31790 ft 456 kts 288°
2026-04-20 16:25 24.36784 57.74681 31791 ft 456 kts 288°
2026-04-20 16:25 24.38822 57.68098 31790 ft 456 kts 288°
2026-04-20 16:26 24.40847 57.61533 31790 ft 456 kts 288°
2026-04-20 16:26 24.42885 57.54922 31790 ft 456 kts 288°
2026-04-20 16:27 24.44921 57.48321 31790 ft 456 kts 288°
2026-04-20 16:27 24.46920 57.41836 31789 ft 456 kts 288°
2026-04-20 16:28 24.48946 57.35244 31791 ft 456 kts 288°
2026-04-20 16:28 24.50920 57.28806 31791 ft 456 kts 288°
2026-04-20 16:29 24.52943 57.22200 31790 ft 455 kts 288°
2026-04-20 16:29 24.54954 57.15680 31170 ft 451 kts 288°
2026-04-20 16:30 24.55966 57.12416 30377 ft 451 kts 287°
2026-04-20 16:30 24.56973 57.09148 29573 ft 452 kts 287°
2026-04-20 16:30 24.57975 57.05871 28768 ft 453 kts 287°
2026-04-20 16:30 24.58983 57.02566 27944 ft 455 kts 287°
2026-04-20 16:31 24.59989 56.99260 27102 ft 456 kts 287°
2026-04-20 16:31 24.60999 56.95937 26231 ft 457 kts 287°
2026-04-20 16:31 24.61992 56.92667 25469 ft 456 kts 287°
2026-04-20 16:31 24.62993 56.89368 24770 ft 454 kts 287°
2026-04-20 16:32 24.64058 56.86104 24070 ft 456 kts 291°
2026-04-20 16:32 24.65393 56.82920 23402 ft 459 kts 296°
2026-04-20 16:32 24.66951 56.79868 23177 ft 457 kts 299°
2026-04-20 16:32 24.68600 56.76875 23048 ft 456 kts 300°
2026-04-20 16:33 24.70240 56.73934 22950 ft 455 kts 300°
2026-04-20 16:33 24.71915 56.70926 22885 ft 455 kts 300°
2026-04-20 16:33 24.73539 56.67993 22822 ft 455 kts 300°
2026-04-20 16:33 24.75177 56.65020 22793 ft 454 kts 300°
2026-04-20 16:34 24.76812 56.62044 22789 ft 454 kts 300°
2026-04-20 16:34 24.78440 56.59076 22789 ft 453 kts 300°
2026-04-20 16:34 24.80073 56.56092 22789 ft 453 kts 300°
2026-04-20 16:34 24.81699 56.53120 22758 ft 454 kts 300°
2026-04-20 16:35 24.83317 56.50133 22292 ft 453 kts 298°
2026-04-20 16:35 24.84701 56.47014 21789 ft 449 kts 292°
2026-04-20 16:35 24.85799 56.43862 21294 ft 442 kts 289°
2026-04-20 16:35 24.86816 56.40711 20793 ft 432 kts 288°
2026-04-20 16:36 24.87788 56.37610 20292 ft 425 kts 288°
2026-04-20 16:36 24.88741 56.34549 19790 ft 419 kts 288°
2026-04-20 16:36 24.89677 56.31532 19289 ft 415 kts 288°
2026-04-20 16:36 24.90294 56.29539 18956 ft 412 kts 288°
2026-04-20 16:37 24.91212 56.26566 18455 ft 408 kts 288°
2026-04-20 16:37 24.92123 56.23615 17954 ft 405 kts 288°
2026-04-20 16:37 24.93025 56.20688 17452 ft 402 kts 288°
2026-04-20 16:37 24.93920 56.17781 16951 ft 398 kts 288°
2026-04-20 16:38 24.94805 56.14909 16450 ft 395 kts 288°
2026-04-20 16:38 24.95686 56.12044 15947 ft 391 kts 289°
2026-04-20 16:38 24.96614 56.09282 15448 ft 387 kts 294°
2026-04-20 16:38 24.97885 56.06664 14945 ft 385 kts 301°
2026-04-20 16:39 24.99367 56.04318 14460 ft 382 kts 308°
2026-04-20 16:39 25.01094 56.02095 13957 ft 379 kts 312°
2026-04-20 16:39 25.02898 55.99981 13456 ft 376 kts 313°
2026-04-20 16:39 25.04665 55.97863 12955 ft 374 kts 313°
2026-04-20 16:40 25.06394 55.95731 12453 ft 372 kts 308°
2026-04-20 16:40 25.07640 55.93224 11853 ft 372 kts 290°
2026-04-20 16:40 25.08218 55.90455 11228 ft 371 kts 278°
2026-04-20 16:40 25.08433 55.87625 10604 ft 369 kts 277°
2026-04-20 16:41 25.08653 55.84845 9984 ft 367 kts 276°
2026-04-20 16:41 25.08861 55.82048 9358 ft 365 kts 276°
2026-04-20 16:41 25.09066 55.79262 8730 ft 363 kts 276°
2026-04-20 16:41 25.09267 55.76498 8105 ft 360 kts 275°
2026-04-20 16:42 25.09467 55.73754 7479 ft 357 kts 275°
2026-04-20 16:42 25.09664 55.71040 6853 ft 353 kts 275°
2026-04-20 16:42 25.09860 55.68347 6227 ft 350 kts 275°
2026-04-20 16:42 25.10054 55.65698 5605 ft 347 kts 276°
2026-04-20 16:43 25.10422 55.63085 4976 ft 343 kts 285°
2026-04-20 16:43 25.11416 55.60712 4414 ft 340 kts 304°
2026-04-20 16:43 25.12785 55.58591 4222 ft 338 kts 304°
2026-04-20 16:43 25.14137 55.56462 3928 ft 339 kts 304°
2026-04-20 16:44 25.15400 55.54260 3444 ft 338 kts 301°
2026-04-20 16:44 25.16618 55.52057 2977 ft 333 kts 301°
2026-04-20 16:44 25.17784 55.49955 2709 ft 317 kts 301°
2026-04-20 16:44 25.18940 55.47911 2135 ft 309 kts 302°
2026-04-20 16:45 25.20057 55.45954 1450 ft 293 kts 299°
2026-04-20 16:45 25.21042 55.44084 1053 ft 271 kts 297°
2026-04-20 16:45 25.21988 55.42385 757 ft 249 kts 300°
2026-04-20 16:45 25.22830 55.40846 465 ft 217 kts 293°
2026-04-20 16:46 25.23566 55.39569 572 ft 169 kts 296°
2026-04-20 16:46 25.24175 55.38472 113 ft 167 kts 294°
2026-04-20 16:46 25.24752 55.37455 84 ft 143 kts 290°
2026-04-20 16:46 25.25184 55.36597 42 ft 106 kts 298°
2026-04-20 16:47 25.25420 55.36181 42 ft 20 kts 305°
2026-04-20 16:47 25.25451 55.36135 42 ft 9 kts 309°
2026-04-20 16:47 25.25540 55.36069 42 ft 22 kts 328°
2026-04-20 16:47 25.25581 55.36043 42 ft 6 kts 330°
2026-04-20 16:48 25.25598 55.36041 42 ft 0 kts 20°
2026-04-20 16:48 25.25658 55.36081 42 ft 21 kts 31°
2026-04-20 16:49 25.25783 55.36166 42 ft 19 kts 32°
2026-04-20 16:49 25.25881 55.36232 42 ft 14 kts 27°
2026-04-20 16:49 25.25963 55.36264 42 ft 12 kts 348°
2026-04-20 16:49 25.26004 55.36228 42 ft 4 kts 299°
2026-04-20 16:50 25.26009 55.36217 42 ft 0 kts 300°
2026-04-20 16:50 25.26017 55.36202 42 ft 6 kts 300°
2026-04-20 16:50 25.26051 55.36143 42 ft 12 kts 304°
2026-04-20 16:50 25.26110 55.36049 42 ft 15 kts 303°
2026-04-20 16:51 25.26178 55.35944 42 ft 19 kts 311°
2026-04-20 16:51 25.26235 55.35910 42 ft 9 kts 15°
2026-04-20 16:51 25.26241 55.35984 42 ft 15 kts 109°
2026-04-20 16:51 25.26175 55.36098 42 ft 21 kts 123°
2026-04-20 16:52 25.26137 55.36163 42 ft 6 kts 123°
2026-04-20 16:52 25.26105 55.36234 42 ft 14 kts 115°
2026-04-20 16:52 25.26066 55.36311 42 ft 13 kts 124°
2026-04-20 16:52 25.26002 55.36417 42 ft 16 kts 121°
2026-04-20 16:53 25.25963 55.36490 42 ft 10 kts 113°
2026-04-20 16:53 25.26000 55.36534 42 ft 11 kts 17°
2026-04-20 16:53 25.26023 55.36548 42 ft 5 kts 32°
2026-04-20 16:53 25.26033 55.36554 42 ft 0 kts 32°
2026-04-20 16:54 25.26033 55.36555 42 ft 0 kts 32°
2026-04-20 16:55 25.26034 55.36555 42 ft 0 kts 32°